Mont-De-Marsan, France

10:34 AM CEST on June 25, 2017 (GMT +0200)
Mont-de-Marsan Air Base

Weather History for LFBM - May, 2013

Change the Weather History Date:

Sunday, May 5, 2013

  Actual Average Record
Temperature  
Mean Temperature 59 °F -  
Max Temperature 75 °F 69 °F 82 °F (2016)
Min Temperature 43 °F 53 °F 36 °F (2014)
Degree Days  
Heating Degree Days 6    
Growing Degree Days 9 (Base 50)    
Moisture  
Dew Point 45 °F    
Average Humidity 64    
Maximum Humidity 100    
Minimum Humidity 21    
Precipitation  
Precipitation 0.00 in - - ()
Sea Level Pressure  
Sea Level Pressure 30.16 in    
Wind  
Wind Speed 2 mph ()    
Max Wind Speed 9 mph    
Max Gust Speed -    
Visibility 6.0 miles    
Events      
Averages and records for this station are not official NWS values.
T = Trace of Precipitation, MM = Missing Value Source: Averaged Metar Reports

Daily Weather History Graph

Daily Weather History Graph

Search for Another Location

Airport or City:

Trip Planner

Search our weather history database for the weather conditions in past years. The results will help you decide how hot, cold, wet, or windy it might be!

Date:

Astronomy

May. 05, 2013 Rise Set
Actual Time 6:48 AM CEST 9:09 PM CEST
Civil Twilight 6:16 AM CEST 9:42 PM CEST
Nautical Twilight 5:36 AM CEST 10:22 PM CEST
Astronomical Twilight 4:51 AM CEST 11:07 PM CEST
Moon 4:20 AM CEST (5/5) 4:46 PM CEST (5/5)
Length of Visible Light 15h 25m
Length of Day
14h 21m
Waning Crescent, 20% of the Moon is Illuminated
May 5
Waning Crescent
May 10
New
May 18
First Quarter
May 25
Full
May 31
Last Quarter

Hourly Weather History & Observations

Time (CEST) Temp. Dew Point Humidity Pressure Visibility Wind Dir Wind Speed Gust Speed Precip Events Conditions
12:00 AM 55.4 °F 48.2 °F 77% 30.21 in 6.2 mi North 8.1 mph - N/A   Unknown
12:30 AM 53.6 °F 48.2 °F 82% 30.21 in 6.2 mi NNW 3.5 mph - N/A   Unknown
1:00 AM 53.6 °F 48.2 °F 82% 30.21 in 6.2 mi Calm Calm - N/A   Unknown
1:30 AM 50.0 °F 46.4 °F 87% 30.21 in 6.2 mi Calm Calm - N/A   Unknown
2:00 AM 49 °F 46 °F 87% 30.21 in 17 mi West 1.2 mph - -   Clear
2:00 AM 50.0 °F 46.4 °F 87% 30.18 in 6.2 mi Calm Calm - N/A   Unknown
2:30 AM 48.2 °F 44.6 °F 87% 30.18 in 6.2 mi North 1.2 mph - N/A   Unknown
3:00 AM 48.2 °F 44.6 °F 87% 30.18 in 6.2 mi WSW 2.3 mph - N/A   Unknown
3:30 AM 46.4 °F 44.6 °F 93% 30.18 in 6.2 mi Calm Calm - N/A   Unknown
4:00 AM 46.4 °F 44.6 °F 93% 30.18 in 6.2 mi West 1.2 mph - N/A   Unknown
4:30 AM 46.4 °F 44.6 °F 93% 30.15 in 6.2 mi Calm Calm - N/A   Unknown
5:00 AM 44.6 °F 42.8 °F 93% 30.15 in 6.2 mi Calm Calm - N/A   Unknown
5:30 AM 44.6 °F 42.8 °F 93% 30.15 in 6.2 mi Calm Calm - N/A   Unknown
6:00 AM 44.6 °F 42.8 °F 93% 30.15 in 2.8 mi Calm Calm - N/A   Mist
6:30 AM 42.8 °F 41.0 °F 93% 30.18 in 3.7 mi Variable 1.2 mph - N/A   Unknown
7:00 AM 42.8 °F 42.8 °F 100% 30.18 in 6.2 mi Calm Calm - N/A   Unknown
7:30 AM 42.8 °F 42.8 °F 100% 30.18 in 3.7 mi Variable 2.3 mph - N/A   Unknown
8:00 AM 44 °F 43 °F 94% 30.21 in 7 mi Calm Calm - -   Clear
8:00 AM 44.6 °F 42.8 °F 93% 30.18 in 6.2 mi Calm Calm - N/A   Unknown
8:30 AM 46.4 °F 44.6 °F 93% 30.18 in 6.2 mi Calm Calm - N/A   Unknown
9:00 AM 51.8 °F 50.0 °F 94% 30.18 in 6.2 mi Calm Calm - N/A   Unknown
9:30 AM 55.4 °F 50.0 °F 82% 30.21 in 1.7 mi Calm Calm - N/A   Mist
10:00 AM 57.2 °F 48.2 °F 72% 30.21 in 5.6 mi Calm Calm - N/A   Unknown
10:30 AM 60.8 °F 48.2 °F 63% 30.21 in - Calm Calm - N/A   Mist
11:00 AM 62.6 °F 48.2 °F 59% 30.18 in 6.2 mi Variable 1.2 mph - N/A   Unknown
11:30 AM 64.4 °F 48.2 °F 56% 30.18 in 2.8 mi Variable 2.3 mph - N/A   Mist
12:00 PM 66.2 °F 46.4 °F 49% 30.18 in 6.2 mi Variable 2.3 mph - N/A   Unknown
12:30 PM 66.2 °F 46.4 °F 49% 30.18 in 6.2 mi Variable 2.3 mph - N/A   Unknown
1:00 PM 68.0 °F 46.4 °F 46% 30.18 in 6.2 mi Variable 3.5 mph - N/A   Unknown
1:30 PM 69.8 °F 44.6 °F 40% 30.15 in 6.2 mi North 4.6 mph - N/A   Unknown
2:00 PM 69.8 °F 42.8 °F 38% 30.15 in 6.2 mi North 4.6 mph - N/A   Unknown
2:30 PM 71.6 °F 42.8 °F 35% 30.15 in 6.2 mi Variable 3.5 mph - N/A   Unknown
3:00 PM 71.6 °F 42.8 °F 35% 30.15 in 6.2 mi Variable 2.3 mph - N/A   Unknown
3:30 PM 73.4 °F 42.8 °F 33% 30.12 in 6.2 mi Variable 3.5 mph - N/A   Unknown
4:00 PM 73.4 °F 41.0 °F 31% 30.12 in 6.2 mi Variable 4.6 mph - N/A   Unknown
4:30 PM 73.4 °F 41.0 °F 31% 30.12 in 6.2 mi WNW 3.5 mph - N/A   Unknown
5:00 PM 71.6 °F 42.8 °F 35% 30.12 in 6.2 mi NE 9.2 mph - N/A   Unknown
5:30 PM 71.6 °F 41.0 °F 33% 30.12 in 6.2 mi NNE 8.1 mph - N/A   Unknown
6:00 PM 73.4 °F 39.2 °F 29% 30.12 in 6.2 mi North 4.6 mph - N/A   Unknown
6:30 PM 73.4 °F 41.0 °F 31% 30.09 in 3.7 mi Variable 2.3 mph - N/A   Unknown
7:00 PM 73.4 °F 37.4 °F 27% 30.12 in 6.2 mi North 3.5 mph - N/A   Unknown
7:30 PM 73.4 °F 35.6 °F 25% 30.09 in 6.2 mi Variable 2.3 mph - N/A   Unknown
8:00 PM 71 °F 39 °F 21% 30.12 in 37 mi NE 6.9 mph - -   Clear
8:00 PM 71.6 °F 39.2 °F 31% 30.12 in 6.2 mi NE 6.9 mph - N/A   Unknown
8:30 PM 69.8 °F 46.4 °F 43% 30.12 in 6.2 mi Variable 3.5 mph - N/A   Unknown
9:00 PM 68.0 °F 48.2 °F 49% 30.12 in 6.2 mi South 3.5 mph - N/A   Unknown
9:30 PM 66.2 °F 48.2 °F 52% 30.12 in 6.2 mi Variable 3.5 mph - N/A   Unknown
10:00 PM 62.6 °F 48.2 °F 59% 30.12 in 6.2 mi WSW 4.6 mph - N/A   Unknown
10:30 PM 59.0 °F 48.2 °F 67% 30.12 in 6.2 mi WSW 3.5 mph - N/A   Unknown
11:00 PM 57.2 °F 48.2 °F 72% 30.12 in 6.2 mi West 2.3 mph - N/A   Unknown
11:30 PM 55.4 °F 48.2 °F 77% 30.12 in 6.2 mi Calm Calm - N/A   Unknown